Christchurch, New Zealand

1:14 PM NZDT on November 22, 2017 (GMT +1300)
Christchurch International

Weather History for NZCH - March, 2014

Change the Weather History Date:

Saturday, March 29, 2014

  Actual Average Record
Temperature  
Mean Temperature 60 °F -  
Max Temperature 68 °F 60 °F 86 °F (1999)
Min Temperature 53 °F 42 °F 37 °F (2009)
Degree Days  
Heating Degree Days 4    
Growing Degree Days 10 (Base 50)    
Moisture  
Dew Point 56 °F    
Average Humidity 90    
Maximum Humidity 100    
Minimum Humidity 68    
Precipitation  
Precipitation 0.00 in - - ()
Sea Level Pressure  
Sea Level Pressure 30.18 in    
Wind  
Wind Speed 5 mph ()    
Max Wind Speed 10 mph    
Max Gust Speed -    
Visibility 5.9 miles    
Events      
Averages and records for this station are not official NWS values.
T = Trace of Precipitation, MM = Missing Value Source: Averaged Metar Reports

Daily Weather History Graph

Daily Weather History Graph

Search for Another Location

Airport or City:

Trip Planner

Search our weather history database for the weather conditions in past years. The results will help you decide how hot, cold, wet, or windy it might be!

Date:

Astronomy

Mar. 29, 2014 Rise Set
Actual Time 7:42 AM NZDT 7:26 PM NZDT
Civil Twilight 7:13 AM NZDT 7:54 PM NZDT
Nautical Twilight 6:40 AM NZDT 8:28 PM NZDT
Astronomical Twilight 6:06 AM NZDT 9:01 PM NZDT
Moon 5:30 AM NZDT (3/29) 6:18 PM NZDT (3/29)
Length of Visible Light 12h 41m
Length of Day
11h 44m
Waning Crescent, 5% of the Moon is Illuminated
Mar 29
Waning Crescent
Mar 31
New
Apr 7
First Quarter
Apr 15
Full
Apr 22
Last Quarter

Hourly Weather History & Observations

Time (NZDT) Temp. Dew Point Humidity Pressure Visibility Wind Dir Wind Speed Gust Speed Precip Events Conditions
12:00 AM 55.4 °F 53.6 °F 94% 30.18 in 6.2 mi West 3.5 mph - N/A   Mostly Cloudy
12:30 AM 53.6 °F 53.6 °F 100% 30.18 in 6.2 mi SSW 3.5 mph - N/A   Mostly Cloudy
1:00 AM 55.4 °F 55.4 °F 100% 30.18 in 6.2 mi WSW 2.3 mph - N/A   Overcast
1:30 AM 57.2 °F 55.4 °F 94% 30.21 in 3.1 mi WSW 6.9 mph - N/A   Overcast
2:00 AM 57.2 °F 55.4 °F 94% 30.21 in - SW 9.2 mph - N/A   Overcast
2:30 AM 57.2 °F 55.4 °F 94% 30.21 in 4.3 mi SW 8.1 mph - N/A   Overcast
3:00 AM 57.2 °F 55.4 °F 94% 30.18 in 4.3 mi WSW 6.9 mph - N/A   Overcast
3:30 AM 57.2 °F 55.4 °F 94% 30.18 in 6.2 mi WSW 6.9 mph - N/A   Overcast
4:00 AM 57.2 °F 55.4 °F 94% 30.18 in 6.2 mi WSW 6.9 mph - N/A   Overcast
4:30 AM 57.2 °F 55.4 °F 94% 30.18 in 6.2 mi WSW 8.1 mph - N/A   Overcast
5:00 AM 57.2 °F 55.4 °F 94% 30.18 in 6.2 mi WSW 5.8 mph - N/A   Overcast
5:30 AM 57.2 °F 55.4 °F 94% 30.18 in 6.2 mi WSW 6.9 mph - N/A   Overcast
6:00 AM 55.4 °F 55.4 °F 100% 30.18 in 6.2 mi WSW 5.8 mph - N/A   Overcast
6:30 AM 55.4 °F 55.4 °F 100% 30.15 in 5.0 mi SW 6.9 mph - N/A   Overcast
7:00 AM 55.4 °F 55.4 °F 100% 30.15 in 6.2 mi WSW 4.6 mph - N/A   Overcast
7:30 AM 55.4 °F 55.4 °F 100% 30.18 in 5.6 mi SW 6.9 mph - N/A   Mostly Cloudy
8:00 AM 55.4 °F 55.4 °F 100% 30.18 in 6.2 mi WSW 5.8 mph - N/A   Overcast
8:30 AM 55.4 °F 55.4 °F 100% 30.18 in 6.2 mi West 2.3 mph - N/A   Mostly Cloudy
9:00 AM 55.4 °F 55.4 °F 100% 30.18 in 6.2 mi SW 4.6 mph - N/A   Mostly Cloudy
9:30 AM 57.2 °F 55.4 °F 94% 30.18 in 6.2 mi WSW 4.6 mph - N/A   Overcast
10:00 AM 57.2 °F 55.4 °F 94% 30.21 in 6.2 mi WSW 5.8 mph - N/A   Mostly Cloudy
10:30 AM 57.2 °F 55.4 °F 94% 30.21 in 6.2 mi WSW 4.6 mph - N/A   Mostly Cloudy
11:00 AM 59.0 °F 55.4 °F 88% 30.21 in 6.2 mi SW 8.1 mph - N/A   Mostly Cloudy
11:30 AM 59.0 °F 55.4 °F 88% 30.21 in 6.2 mi SSW 8.1 mph - N/A   Overcast
12:00 PM 59.0 °F 55.4 °F 88% 30.21 in 6.2 mi SW 8.1 mph - N/A   Mostly Cloudy
12:30 PM 60.8 °F 53.6 °F 77% 30.21 in 6.2 mi WSW 4.6 mph - N/A   Scattered Clouds
1:00 PM 60.8 °F 55.4 °F 82% 30.21 in 6.2 mi NW 4.6 mph - N/A   Unknown
1:30 PM 62.6 °F 55.4 °F 77% 30.21 in 6.2 mi SW 1.2 mph - N/A   Unknown
2:00 PM 62.6 °F 55.4 °F 77% 30.18 in 6.2 mi ENE 2.3 mph - N/A   Unknown
2:30 PM 64.4 °F 57.2 °F 77% 30.18 in 6.2 mi NW 5.8 mph - N/A   Unknown
3:00 PM 66.2 °F 57.2 °F 73% 30.15 in 6.2 mi ENE 2.3 mph - N/A   Unknown
3:30 PM 66.2 °F 55.4 °F 68% 30.15 in 6.2 mi East 4.6 mph - N/A   Unknown
4:00 PM 66.2 °F 57.2 °F 73% 30.15 in 6.2 mi NNE 4.6 mph - N/A   Unknown
4:30 PM 68.0 °F 57.2 °F 68% 30.15 in 6.2 mi NE 6.9 mph - N/A   Unknown
5:00 PM 66.2 °F 59.0 °F 78% 30.15 in 6.2 mi ENE 9.2 mph - N/A   Unknown
5:30 PM 66.2 °F 57.2 °F 73% 30.15 in 6.2 mi NE 9.2 mph - N/A   Unknown
6:00 PM 66.2 °F 59.0 °F 78% 30.12 in 6.2 mi NE 9.2 mph - N/A   Unknown
6:30 PM 64.4 °F 55.4 °F 73% 30.12 in 6.2 mi ENE 9.2 mph - N/A   Unknown
7:00 PM 60.8 °F 55.4 °F 82% 30.15 in 6.2 mi ENE 10.4 mph - N/A   Unknown
7:30 PM 59.0 °F 55.4 °F 88% 30.15 in 6.2 mi NE 9.2 mph - N/A   Unknown
8:00 PM 57.2 °F 55.4 °F 94% 30.15 in 6.2 mi NE 8.1 mph - N/A   Unknown
8:30 PM 57.2 °F 55.4 °F 94% 30.15 in 6.2 mi ENE 6.9 mph - N/A   Unknown
9:00 PM 57.2 °F 55.4 °F 94% 30.18 in 6.2 mi ENE 5.8 mph - N/A   Unknown
9:30 PM 57.2 °F 55.4 °F 94% 30.18 in 6.2 mi ENE 5.8 mph - N/A   Unknown
10:00 PM 55.4 °F 55.4 °F 100% 30.18 in 5.6 mi NE 5.8 mph - N/A   Unknown
10:30 PM 55.4 °F 55.4 °F 100% 30.18 in 6.2 mi NE 4.6 mph - N/A   Unknown
11:00 PM 55.4 °F 53.6 °F 94% 30.21 in 3.1 mi NNE 3.5 mph - N/A   Mist
11:30 PM 53.6 °F 53.6 °F 100% 30.21 in - North 3.5 mph - N/A   Scattered Clouds